[[{"header":{"parameterUnit":"m.s-1","parameterCategory":1,"la1":30.2991,"la2":30.254,"lo1":-89.0895,"lo2":-89.0444,"dy":0.0017,"dx":0.0017,"nx":28,"ny":28,"refTime":"2024-04-24T21:00:00:Z","depth":0,"parameterNumber":2,"parameterNumberName":"U-component_of_WINDS"},"data":[0,0,0,0,0,0,0,0,0,0,0,0,0,0,0,0,0,0,0,0,0,0,0,0,0,0,0,0,0,0,0,0,0,0,0,0,0,0,0,0,0,0,0,0,0,0,0,0,0,0,0,0,0,0,0,0,0,0,-4.1892,-4.1893,0,-4.1953,-4.1953,-4.1954,-4.1961,-4.196,-4.196,-4.1959,-4.202,-4.2022,-4.2025,0,0,0,0,0,0,0,0,0,0,0,0,0,-4.1783,-4.1785,-4.1892,-4.1893,-4.1894,-4.1952,-4.1953,-4.1954,-4.1961,-4.196,-4.196,-4.1959,-4.202,-4.2022,-4.2025,0,0,0,0,0,0,0,0,0,0,0,0,0,-4.1836,-4.1786,-4.1892,-4.1904,-4.1906,-4.1952,-4.1953,-4.1954,-4.1961,-4.196,-4.1959,-4.1958,-4.2019,-4.2022,-4.2025,-4.2063,0,0,-4.2035,-4.2037,0,0,0,0,0,0,0,0,-4.1833,-4.184,-4.1902,-4.1903,-4.1905,-4.1948,-4.1937,-4.1991,-4.1961,-4.194,-4.1959,-4.1958,-4.1997,-4.2002,-4.2015,-4.2066,-4.2069,-4.2035,-4.2037,-4.2039,-4.204,0,0,0,0,0,0,0,-4.1829,-4.1837,-4.1916,-4.1903,-4.1905,-4.1907,-4.1913,-4.1948,-4.1973,-4.1942,-4.1943,-4.195,-4.1998,-4.2012,-4.2017,-4.207,-4.2035,-4.2038,-4.204,-4.2042,-4.2156,-4.2157,0,0,0,0,0,0,-4.1823,-4.1834,-4.1914,-4.1918,-4.1866,-4.191,-4.1917,-4.1935,-4.1973,-4.1977,-4.195,-4.195,-4.2007,-4.2013,-4.2019,-4.2066,-4.2039,-4.2042,-4.2044,-4.2155,-4.2156,-4.2157,0,0,0,0,0,0,-4.1821,-4.183,-4.1912,-4.1876,-4.1887,-4.1912,-4.1933,-4.1937,-4.1951,-4.1979,-4.1983,-4.196,-4.2006,-4.2014,-4.2052,-4.2068,-4.2043,-4.2046,-4.2153,-4.2155,-4.2157,-4.216,0,0,0,0,0,0,-4.1818,-4.1829,-4.1844,-4.1877,-4.1889,-4.1944,-4.1934,-4.1939,-4.1957,-4.1957,-4.1989,-4.1994,-4.2006,-4.2048,-4.2056,-4.2072,-4.2049,-4.2152,-4.2154,-4.2156,-4.2158,-4.2161,-4.2164,0,0,0,0,0,-4.1814,-4.1842,-4.1845,-4.1854,-4.1907,-4.1945,-4.1952,-4.1966,-4.1958,-4.1973,-4.1991,-4.1993,-4.2066,-4.2051,-4.2061,-4.2078,-4.2151,-4.2154,-4.2156,-4.2157,-4.2161,-4.2164,0,0,0,0,0,0,-4.181,-4.1847,-4.185,-4.1889,-4.1914,-4.1946,-4.1965,-4.1969,-4.1996,-4.1994,-4.2011,-4.2018,-4.2055,-4.2071,-4.2055,-4.2118,-4.2108,-4.2112,-4.2105,-4.2109,-4.2112,-4.2106,-4.2052,0,0,0,0,0,-4.1814,-4.1842,-4.1872,-4.1904,-4.1917,-4.1939,-4.1956,-4.1964,-4.199,-4.2001,-4.2021,-4.2046,-4.2075,-4.2093,-4.2121,-4.2162,-4.2169,-4.2179,-4.2181,-4.2184,-4.2186,-4.2209,-4.2214,-4.2165,-4.2165,-4.2165,0,0,-4.1822,-4.1846,-4.1862,-4.1904,-4.1924,-4.1952,-4.1947,-4.1977,-4.1998,-4.2005,-4.2042,-4.2059,-4.2088,-4.2127,-4.2146,-4.2141,-4.2202,-4.2187,-4.2188,-4.219,-4.2212,-4.2216,-4.2221,-4.2167,-4.2166,-4.2166,0,0,-4.1851,-4.1872,-4.1901,-4.1921,-4.1952,-4.1967,-4.1974,-4.2006,-4.2017,-4.2055,-4.2061,-4.2086,-4.2135,-4.2156,-4.2173,-4.2211,-4.2214,-4.222,-4.2234,-4.2255,-4.2259,-4.2263,-4.2276,-4.228,-4.2224,-4.2224,-4.2224,0,-4.1857,-4.1899,-4.1915,-4.1945,-4.1963,-4.1972,-4.2002,-4.2021,-4.2059,-4.2072,-4.2067,-4.2129,-4.2149,-4.2194,-4.2203,-4.2217,-4.2225,-4.2215,-4.2257,-4.2261,-4.2264,-4.2277,-4.2282,-4.2224,-4.2224,-4.2224,-4.2224,0,-4.1905,-4.1934,-4.1954,-4.1991,-4.2012,-4.2041,-4.2062,-4.2081,-4.2089,-4.2105,-4.2143,-4.2169,-4.2202,-4.2214,-4.2221,-4.2259,-4.2256,-4.2254,-4.2244,-4.2269,-4.2281,-4.2286,-4.2225,-4.2225,-4.2224,-4.2224,0,0,-4.193,-4.1977,-4.1984,-4.2001,-4.2036,-4.2059,-4.209,-4.2122,-4.2138,-4.2166,-4.2191,-4.2233,-4.2232,-4.2252,-4.2262,-4.2282,-4.231,-4.2278,-4.2279,-4.2282,-4.2353,-4.2352,-4.2358,-4.2313,-4.2314,-4.2315,-4.235,0,-4.1962,-4.2015,-4.2032,-4.2077,-4.2104,-4.2114,-4.2141,-4.2166,-4.2182,-4.2207,-4.2225,-4.2254,-4.2252,-4.2263,-4.2283,-4.2302,-4.2324,-4.23,-4.2336,-4.2337,-4.2326,-4.2364,-4.2364,-4.2395,-4.2355,-4.2356,-4.2356,0,-4.2005,-4.2033,-4.2081,-4.2113,-4.2125,-4.2149,-4.218,-4.2205,-4.2234,-4.2244,-4.2267,-4.2276,-4.2309,-4.2299,-4.2344,-4.2327,-4.2343,-4.2355,-4.2357,-4.2359,-4.2347,-4.2366,-4.2406,-4.241,-4.2364,-4.2363,-4.2363,0,-4.2018,-4.2067,-4.2102,-4.2117,-4.2156,-4.2172,-4.2189,-4.2217,-4.2236,-4.2264,-4.2277,-4.2309,-4.2326,-4.235,-4.2368,-4.2359,-4.2411,-4.2403,-4.242,-4.242,-4.2429,-4.2427,-4.247,-4.2442,-4.2442,-4.2442,-4.2442,0,-4.205,-4.2079,-4.2108,-4.2129,-4.2162,-4.2181,-4.2213,-4.2231,-4.2256,-4.2281,-4.2293,-4.2316,-4.2339,-4.2366,-4.2381,-4.2415,-4.2423,-4.2432,-4.2435,-4.243,-4.2429,-4.2439,-4.2437,-4.2443,-4.2443,-4.2443,-4.2443,0,-4.2069,-4.209,-4.2128,-4.2163,-4.2172,-4.2194,-4.2224,-4.2245,-4.2263,-4.2294,-4.2303,-4.233,-4.2362,-4.2383,-4.2424,-4.2434,-4.2472,-4.2475,-4.2461,-4.2463,-4.2478,-4.2476,-4.2528,-4.2535,-4.2504,-4.2504,-4.2504,0,-4.2087,-4.2109,-4.2146,-4.2164,-4.2181,-4.221,-4.2229,-4.2249,-4.2269,-4.2305,-4.2322,-4.2355,-4.2382,-4.2433,-4.2456,-4.2488,-4.2492,-4.2508,-4.2496,-4.249,-4.249,-4.2488,-4.249,-4.2509,-4.2509,-4.2509,-4.2509,0,-4.2117,-4.2127,-4.2154,-4.2186,-4.2209,-4.2235,-4.2261,-4.2275,-4.23,-4.2322,-4.2355,-4.2376,-4.2419,-4.2451,-4.2485,-4.2503,-4.251,-4.2513,-4.2519,-4.2512,-4.2503,-4.2507,-4.2465,-4.2511,-4.2511,-4.2511,-4.2511,-4.2511,-4.2136,-4.2156,-4.2185,-4.2215,-4.2237,-4.2262,-4.2283,-4.2304,-4.2331,-4.2367,-4.2378,-4.2412,-4.2442,-4.2488,-4.2507,-4.2535,-4.2533,-4.2541,-4.2543,-4.2544,-4.2544,-4.2501,-4.2541,-4.2541,-4.2541,-4.2541,-4.2541,0,-4.2165,-4.2185,-4.2213,-4.2249,-4.2273,-4.2279,-4.2308,-4.2328,-4.2358,-4.2385,-4.2412,-4.245,-4.2482,-4.2509,-4.2542,-4.2559,-4.2563,-4.2567,-4.2565,-4.2569,-4.2544,-4.2535,-4.2563,-4.2563,-4.2563,-4.2563,-4.2563,-4.2563,-4.2184,-4.2218,-4.2231,-4.2277,-4.2296,-4.233,-4.2346,-4.2369,-4.239,-4.2432,-4.2459,-4.2476,-4.2503,-4.2539,-4.2569,-4.2576,-4.2587,-4.259,-4.2597,-4.2573,-4.2571,-4.2568,-4.256,-4.2592,-4.2592,-4.262,-4.262,-4.262]},{"header":{"parameterUnit":"m.s-1","parameterCategory":1,"la1":30.2991,"la2":30.254,"lo1":-89.0895,"lo2":-89.0444,"dy":0.0017,"dx":0.0017,"nx":28,"ny":28,"refTime":"2024-04-24T21:00:00:Z","depth":0,"parameterNumber":3,"parameterNumberName":"V-component_of_WINDS"},"data":[0,0,0,0,0,0,0,0,0,0,0,0,0,0,0,0,0,0,0,0,0,0,0,0,0,0,0,0,0,0,0,0,0,0,0,0,0,0,0,0,0,0,0,0,0,0,0,0,0,0,0,0,0,0,0,0,0,0,4.8935,4.8936,0,4.9009,4.901,4.901,4.9026,4.9025,4.9025,4.9024,4.9095,4.9097,4.91,0,0,0,0,0,0,0,0,0,0,0,0,0,4.8804,4.8807,4.8935,4.8936,4.8937,4.9009,4.901,4.9011,4.9026,4.9025,4.9024,4.9024,4.9094,4.9097,4.91,0,0,0,0,0,0,0,0,0,0,0,0,0,4.8868,4.8807,4.8935,4.8953,4.8956,4.9008,4.901,4.9011,4.9026,4.9025,4.9024,4.9023,4.9093,4.9097,4.91,4.9139,0,0,4.9111,4.9113,0,0,0,0,0,0,0,0,4.8864,4.8872,4.895,4.8952,4.8955,4.9007,4.899,4.9054,4.9026,4.8999,4.9024,4.9023,4.9066,4.9072,4.9087,4.9142,4.9145,4.9112,4.9114,4.9115,4.9116,0,0,0,0,0,0,0,4.886,4.8869,4.8964,4.8951,4.8954,4.8957,4.8965,4.9002,4.9036,4.9001,4.9003,4.9011,4.9067,4.9084,4.9089,4.9146,4.9112,4.9115,4.9117,4.9118,4.9237,4.9238,0,0,0,0,0,0,4.8853,4.8866,4.8962,4.8966,4.8907,4.896,4.8969,4.8991,4.9036,4.9042,4.9012,4.9012,4.9078,4.9085,4.9092,4.9141,4.9115,4.9119,4.9121,4.9236,4.9237,4.9238,0,0,0,0,0,0,4.885,4.8861,4.8959,4.8916,4.8929,4.8963,4.8988,4.8993,4.901,4.9044,4.905,4.9023,4.9078,4.9087,4.9127,4.9143,4.912,4.9124,4.9235,4.9236,4.9238,4.9238,0,0,0,0,0,0,4.8846,4.886,4.8876,4.8917,4.8931,4.8994,4.8989,4.8995,4.9016,4.9017,4.9056,4.9061,4.9078,4.9122,4.9131,4.9148,4.9126,4.9233,4.9235,4.9237,4.9236,4.9239,4.9241,0,0,0,0,0,4.8841,4.8872,4.8876,4.8888,4.8952,4.8995,4.9003,4.9023,4.9017,4.9033,4.9055,4.906,4.914,4.9126,4.9136,4.9154,4.9232,4.9235,4.9237,4.9235,4.9239,4.9241,0,0,0,0,0,0,4.883,4.8877,4.8883,4.8928,4.8958,4.8998,4.9018,4.9026,4.9057,4.9056,4.9077,4.9086,4.9126,4.9144,4.9128,4.9194,4.9186,4.919,4.9181,4.9184,4.9187,4.9182,4.9129,0,0,0,0,0,4.8833,4.8865,4.8904,4.894,4.8955,4.8984,4.9003,4.9016,4.9047,4.906,4.9085,4.9114,4.9145,4.9166,4.9197,4.9239,4.9248,4.9256,4.9259,4.9261,4.9264,4.9289,4.9293,4.9245,4.9245,4.9245,0,0,4.8838,4.8868,4.8887,4.8939,4.8963,4.8996,4.8994,4.9028,4.9052,4.9064,4.9105,4.9124,4.9158,4.92,4.922,4.9216,4.9279,4.9263,4.9265,4.9267,4.9291,4.9296,4.93,4.9247,4.9247,4.9246,0,0,4.8866,4.8892,4.8925,4.895,4.8988,4.9007,4.9015,4.9055,4.9069,4.911,4.912,4.9148,4.9202,4.9227,4.9246,4.9283,4.9289,4.9293,4.9305,4.9329,4.9333,4.9336,4.935,4.9355,4.9296,4.9296,4.9296,0,4.8868,4.8919,4.8941,4.8975,4.8997,4.9011,4.9045,4.9068,4.9113,4.9127,4.9123,4.9193,4.9216,4.9264,4.9274,4.9288,4.9298,4.9288,4.933,4.9334,4.9338,4.9351,4.9357,4.9296,4.9296,4.9296,4.9296,0,4.892,4.8955,4.8977,4.9023,4.9047,4.908,4.9107,4.9129,4.914,4.9159,4.9201,4.923,4.9268,4.928,4.929,4.933,4.9327,4.9326,4.9318,4.9342,4.9355,4.9361,4.9297,4.9297,4.9296,4.9296,0,0,4.8942,4.9001,4.9008,4.903,4.9073,4.91,4.9133,4.9172,4.9191,4.9221,4.925,4.9296,4.9297,4.9318,4.9331,4.9352,4.9381,4.9349,4.935,4.9354,4.9427,4.9428,4.9434,4.9385,4.9386,4.9387,4.9425,0,4.8976,4.9039,4.906,4.9112,4.9144,4.9158,4.9188,4.9217,4.9236,4.9266,4.9286,4.9319,4.9316,4.933,4.9351,4.9373,4.9396,4.937,4.9412,4.9413,4.9404,4.9441,4.9441,4.9476,4.943,4.9431,4.9432,0,4.9023,4.9057,4.9112,4.9153,4.9167,4.9194,4.9231,4.9259,4.9292,4.9305,4.933,4.9341,4.9377,4.9367,4.9415,4.9398,4.9416,4.9429,4.9431,4.9436,4.9424,4.9447,4.9487,4.9493,4.944,4.9439,4.9439,0,4.9035,4.9094,4.9135,4.9153,4.92,4.9219,4.9239,4.9272,4.9294,4.9326,4.934,4.9375,4.9395,4.9421,4.9442,4.9432,4.9489,4.948,4.95,4.95,4.9512,4.9511,4.9556,4.9522,4.9522,4.9522,4.9522,0,4.9071,4.9104,4.9141,4.9167,4.9205,4.9228,4.9265,4.9286,4.9315,4.9344,4.9357,4.9384,4.9409,4.9439,4.9455,4.9494,4.9502,4.9513,4.9517,4.9512,4.9511,4.9524,4.9523,4.9523,4.9523,4.9523,4.9523,0,4.909,4.9117,4.9163,4.9205,4.9216,4.9242,4.9277,4.9302,4.9322,4.9359,4.9369,4.9399,4.9435,4.9459,4.9504,4.9514,4.9557,4.956,4.9546,4.9548,4.9567,4.9565,4.9623,4.9632,4.9591,4.9592,4.9592,0,4.9112,4.9139,4.9184,4.9205,4.9226,4.926,4.9283,4.9307,4.933,4.9371,4.939,4.9428,4.9459,4.9515,4.9541,4.9576,4.958,4.9598,4.9585,4.958,4.9581,4.958,4.9583,4.96,4.96,4.9601,4.9601,0,4.9148,4.916,4.9193,4.9232,4.9259,4.929,4.9321,4.9337,4.9366,4.9392,4.943,4.9454,4.9501,4.9538,4.9575,4.9595,4.9603,4.9605,4.9611,4.9607,4.9599,4.9604,4.9553,4.9603,4.9603,4.9603,4.9603,4.9603,4.917,4.9194,4.9231,4.9268,4.9294,4.9322,4.9348,4.9372,4.9405,4.9446,4.9458,4.9497,4.953,4.9581,4.9602,4.9632,4.963,4.9639,4.9642,4.9644,4.9645,4.9593,4.9639,4.9639,4.9639,4.9639,4.9639,0,4.9207,4.9231,4.9265,4.9309,4.9338,4.9344,4.9379,4.9402,4.9438,4.9468,4.9499,4.9543,4.9579,4.9608,4.9644,4.9663,4.9668,4.9672,4.9671,4.9676,4.9644,4.9635,4.9668,4.9668,4.9668,4.9668,4.9668,4.9668,4.923,4.9272,4.9288,4.9344,4.9367,4.9408,4.9427,4.9453,4.9478,4.9527,4.9558,4.9577,4.9606,4.9646,4.9679,4.9686,4.9699,4.9703,4.9711,4.9681,4.9678,4.9675,4.9667,4.9706,4.9706,4.9741,4.9741,4.9741]}]]